Regional Weather Roundup
Issued by NWS Albany, NY

Home | Current Version | Previous Version | Text Only | Print | Product List | Glossary On
Versions: 1 2 3 4 5 6 7 8 9 10 11 12 13 14 15 16 17 18 19 20 21 22 23 24 25 26 27
000
ASUS41 KALY 230710
RWRALY

NEW YORK STATE HOURLY WEATHER ROUNDUP
NATIONAL WEATHER SERVICE ALBANY NY
300 AM EDT THU MAR 23 2017

NOTE: "FAIR" INDICATES FEW OR NO CLOUDS BELOW 12,000 FEET WITH NO
SIGNIFICANT WEATHER AND/OR NO OBSTRUCTIONS TO VISIBILITY.

NYZ032-033-038>043-046>054-057>066-NYZ062>081-082-084-230800-
EAST


CITY           SKY/WX    TMP DP  RH WIND       PRES   REMARKS
ALBANY         CLEAR     16  -3  43 W3        30.47R
GLENS FALLS    PTCLDY    16  -6  37 VRB5      30.45R WCI   9
POUGHKEEPSIE   PTCLDY    14   4  64 CALM      30.46R
NEWBURGH       CLEAR     18   5  57 W12       30.45  WCI   5
MONTGOMERY     CLEAR     20   5  52 W9        30.44R WCI   9
WHITE PLAINS   CLEAR     21   3  45 NW8       30.43R WCI  11
ISLIP          CLEAR     23   2  40 N15       30.44S WCI  10
NEW YORK CITY  CLEAR     26   6  42 NW10      30.48R WCI  16
CENTRAL PARK   CLEAR     23   4  44 VRB3      30.49S
$$

NYZ005>009-017-018-044>046-055-056-230800-
CENTRAL


CITY           SKY/WX    TMP DP  RH WIND       PRES   REMARKS
FULTON         CLEAR    N/A N/A N/A N7        30.51R
SYRACUSE       CLEAR     17   7  64 N5        30.51R WCI  10
ROME           PTCLDY     6   3  87 CALM      30.51R
ELMIRA         CLEAR     11   6  81 CALM      30.49S
BINGHAMTON     CLEAR     12   4  70 NW6       30.40R WCI   3
MONTICELLO     CLEAR     12   3  67 W9        30.39R WCI   0
$$

NYZ026>034-041>043-087-230800-
NORTH


CITY           SKY/WX    TMP DP  RH WIND       PRES   REMARKS
WATERTOWN      CLEAR      4   2  91 CALM      30.52R
FORT DRUM      NOT AVBL
MASSENA        PTCLDY     8  -1  66 SW3       30.50S
SARANAC LAKE   CLEAR    -13 -17  82 CALM      30.34R
PLATTSBURGH    CLEAR     12  -4  48 NW3       30.45R
$$

NYZ001>004-010>016-019>021-085-230800-
WEST


CITY           SKY/WX    TMP DP  RH WIND       PRES   REMARKS
NIAGARA FALLS  CLEAR     21  12  68 CALM      30.54R
BUFFALO        CLEAR     20  12  71 N5        30.53R WCI  13
DUNKIRK        CLEAR     17  13  84 CALM      30.54R
JAMESTOWN      CLEAR     16   9  73 CALM      30.44R
WELLSVILLE     CLEAR     14   7  73 NW5       30.42R WCI   6
ROCHESTER      PTCLDY    17   8  67 W8        30.53S WCI   7
PENN YAN       CLEAR     20   6  55 VRB5      30.49R WCI  13
$$

             KEY
       WCI = WIND CHILL INDEX
       VSB = VISIBILITY
       HX  = HEAT INDEX
$$




USA.gov is the U.S. government's official web portal to all federal, state and local government web resources and services.